This demonstration page uses our WeatherBlox Daily Observations layout. Learn more.

36.17497, -115.13722

Hourly Observations for November 12, 2018

Temp ( °F °C ) Dew Point ( °F °C ) Humidity (%) Winds ( mph kmh ) Pressure ( in mb ) Visibility ( mi km ) Precip ( " mm )
12:53 am 00:53 Clear 44 6.7 9 -12.8 24 24 Calm 30.39 1029 10 16.09344 0 0
1:53 am 01:53 Clear 40 4.4 10 -12.2 29 29 W 5 7 30.42 1030 10 16.09344 0 0
2:53 am 02:53 Clear 39 3.9 13 -10.6 34 34 WNW 7 11 30.42 1030 10 16.09344 0 0
3:53 am 03:53 Clear 42 5.6 4 -15.6 20 20 NNE 5 7 30.42 1030 10 16.09344 0 0
4:53 am 04:53 Clear 41 5 11 -11.7 29 29 WNW 6 9 30.45 1031 10 16.09344 0 0
5:53 am 05:53 Clear 37 2.8 11 -11.7 34 34 WNW 6 9 30.48 1032 10 16.09344 0 0
6:53 am 06:53 Sunny 40 4.4 7 -13.9 25 25 WNW 6 9 30.5 1033 10 16.09344 0 0
7:53 am 07:53 Sunny 45 7.2 6 -14.4 20 20 WNW 5 7 30.53 1034 10 16.09344 0 0
8:53 am 08:53 Sunny 52 11.1 5 -15 15 15 N 7 11 30.53 1034 10 16.09344 0 0
9:53 am 09:53 Sunny 54 12.2 6 -14.4 14 14 undefined N/A 30.53 1034 10 16.09344 0 0
10:53 am 10:53 Sunny 56 13.3 7 -13.9 14 14 NNW 5 7 30.53 1034 10 16.09344 0 0
11:53 am 11:53 Sunny 57 13.9 6 -14.4 13 13 N 5 7 30.5 1033 10 16.09344 0 0
12:53 pm 12:53 Sunny 58 14.4 6 -14.4 12 12 E 18 30 30.48 1032 10 16.09344 0 0
1:53 pm 13:53 Sunny 59 15 6 -14.4 12 12 Calm 30.48 1032 10 16.09344 0 0
2:53 pm 14:53 Sunny 60 15.6 4 -15.6 10 10 N 8 13 30.48 1032 10 16.09344 0 0
3:53 pm 15:53 Sunny 59 15 5 -15 11 11 N 9 15 30.45 1031 10 16.09344 0 0
4:53 pm 16:53 Clear 56 13.3 6 -14.4 13 13 Calm 30.48 1032 10 16.09344 0 0
5:53 pm 17:53 Clear 55 12.8 7 -13.9 14 14 Calm 30.5 1033 10 16.09344 0 0
6:53 pm 18:53 Clear 52 11.1 6 -14.4 15 15 NNE 6 9 30.5 1033 10 16.09344 0 0
7:53 pm 19:53 Clear 50 10 7 -13.9 17 17 NNE 6 9 30.53 1034 10 16.09344 0 0
8:53 pm 20:53 Clear 48 8.9 7 -13.9 19 19 N 7 11 30.53 1034 10 16.09344 0 0
9:53 pm 21:53 Clear 45 7.2 8 -13.3 22 22 S 3 6 30.56 1035 10 16.09344 0 0
10:53 pm 22:53 Clear 44 6.7 10 -12.2 25 25 NW 3 6 30.56 1035 10 16.09344 0 0
11:53 pm 23:53 Clear 42 5.6 11 -11.7 28 28 N 3 6 30.56 1035 10 16.09344 0 0

Powered by AerisWeather